www.pogodaiklimat.ru

Погода и климат >> Архив погоды >> Австралия >> Квинсленд >> Маккай


ПОГОДА в Маккае

  • Прогноз погоды в Маккае
  • Монитор погоды в Маккае

АРХИВ ПОГОДЫ в Маккае

Время (UTC), дата Ветер
(напр.,м/с)
 
Видим.   Явления Облачность Т
(С)
Тd
(С)
f
(%)
Тe
(С)
Тes
(С)
Комфортность P
(гПа)
Po
(гПа)
Тmin
(С)
Tmax
(С)
R
(мм)
R24
(мм)
S
(см)
08 14.01 ЮВ 8 н/о н/о +28.0 +22.9 74 +37 +37 очень
душно
1011.3 1010.7
11 14.01 ЮВ 9 н/о н/о +26.7 +23.4 82 +36 +36 очень
душно
1012.5 1011.9
14 14.01 ЮВ 7 н/о н/о +26.3 +24.0 87 +36 +36 очень
душно
1012.2 1011.6 +30.4
17 14.01 В 7 н/о н/о +26.4 +22.5 79 +35 +35 очень
душно
1010.8 1010.2
20 14.01 ЮВ 8 н/о н/о +26.5 +21.9 76 +34 +34 очень
душно
1012.9 1012.3
23 14.01 ЮВ 7 н/о н/о +28.4 +22.2 69 +37 +37 очень
душно
1014.0 1013.4
02 15.01 ЮВ 9 н/о н/о +29.3 +22.3 66 +38 +38 очень
душно
1013.1 1012.5 +24.8
05 15.01 ЮВ 8 н/о н/о +28.5 +21.8 67 +37 +37 очень
душно
1011.1 1010.5
08 15.01 ЮВ 6 н/о н/о +27.8 +22.1 71 +36 +36 очень
душно
1011.5 1010.9
11 15.01 В 7 н/о н/о +26.5 +21.5 74 +34 +34 очень
душно
1012.7 1012.1
14 15.01 В 5 н/о н/о +25.9 +21.6 77 +33 +33 очень
душно
1012.1 1011.5 +30.2
17 15.01 В 4 н/о н/о +25.6 +21.5 78 +33 +33 очень
душно
1010.7 1010.1
20 15.01 ЮЗ 3 н/о н/о +23.1 +21.5 91 +31 +31 очень
душно
1012.0 1011.4
23 15.01 ЮВ 5 н/о н/о +28.8 +21.8 66 +37 +37 очень
душно
1012.8 1012.2
02 16.01 В 6 н/о н/о +29.3 +22.8 68 +39 +39 очень
душно
1011.9 1011.3 +22.6
05 16.01 В 7 н/о н/о +29.5 +22.7 67 +39 +39 очень
душно
1009.8 1009.2
08 16.01 В 6 н/о н/о +27.6 +21.2 68 +35 +35 очень
душно
1010.3 1009.7
11 16.01 В 5 н/о н/о +26.4 +21.8 76 +34 +34 очень
душно
1011.7 1011.1
14 16.01 В 4 н/о н/о +25.7 +21.1 76 +32 +32 очень
душно
1011.8 1011.2 +30.2
17 16.01 З 3 н/о н/о +23.0 +21.1 89 +31 +31 очень
душно
1010.6 1010.0
20 16.01 З 2 н/о н/о +22.4 +21.0 92 +29 +29 очень
душно
1011.5 1010.9
23 16.01 В 5 н/о н/о +28.7 +22.0 67 +37 +37 очень
душно
1012.4 1011.8
02 17.01 В 6 н/о в посл. час дождь {туман} 8/8 600 м
[]
+29.1 +21.6 64 +37 +39 очень
душно
1012.0 1011.4 +22.2
05 17.01 ЮВ 6 н/о {туман} 3/3 600 м
[]
+29.2 +22.2 66 +38 +42 очень
душно
1010.5 1009.9
08 17.01 В 5 н/о 1/1 600 м
[]
+27.2 +21.5 71 +35 +35 очень
душно
1010.7 1010.1
11 17.01 В 5 н/о 5/5 600 м
[]
+26.7 +22.1 76 +35 +35 очень
душно
1012.2 1011.6
14 17.01 В 5 н/о 1/1 600 м
[]
+26.0 +21.2 75 +33 +33 очень
душно
1011.8 1011.2
17 17.01 В 4 н/о 3/3 600 м
[]
+25.5 +22.0 81 +33 +33 очень
душно
1010.2 1009.6
20 17.01 В 3 н/о в посл. час дождь {туман} 10/10 600 м
[]
+25.4 +22.9 86 +34 +34 очень
душно
1011.6 1011.0
23 17.01 В 5 н/о {туман} 1/1 600 м
[]
+28.3 +22.5 71 +37 +43 очень
душно
1013.0 1012.4
02 18.01 В 6 н/о 3/3 600 м
[]
+28.9 +22.4 68 +38 +45 очень
душно
1013.0 1012.4
05 18.01 В 7 н/о 1/1 600 м
[]
+29.4 +22.1 65 +38 +42 очень
душно
1012.0 1011.4
08 18.01 В 6 н/о 10/10 600 м
[]
+27.2 +20.3 66 +34 +34 очень
душно
1012.7 1012.1
11 18.01 В 5 н/о 6/6 600 м
[]
+26.1 +20.4 71 +32 +32 очень
душно
1014.1 1013.5
14 18.01 В 4 н/о 9/9 600 м
[]
+25.7 +20.5 73 +32 +32 очень
душно
1013.8 1013.2 +30.4
17 18.01 ЮЗ 2 н/о 8/8 600 м
[]
+23.3 +21.2 88 +31 +31 очень
душно
1012.6 1012.0
20 18.01 ЮЗ 3 н/о 3/3 600 м
[]
+22.0 +20.6 92 +28 +28 душно 1013.5 1012.9
23 18.01 ЮВ 6 н/о 6/6 600 м
[]
+27.9 +20.2 63 +34 +36 очень
душно
1015.0 1014.4
02 19.01 ЮВ 7 н/о 1/1 600 м
[]
+29.2 +21.4 63 +37 +43 очень
душно
1014.2 1013.6 +22.0
05 19.01 ЮВ 7 н/о н/о +29.3 +21.3 62 +37 +37 очень
душно
1012.4 1011.8
08 19.01 ЮВ 7 н/о н/о +27.4 +20.5 66 +34 +34 очень
душно
1012.5 1011.9
11 19.01 В 7 н/о 5/5 600 м
[]
+26.4 +21.8 76 +34 +34 очень
душно
1013.6 1013.0
14 19.01 В 6 н/о 3/0
[]
+26.0 +20.8 73 +33 +33 очень
душно
1013.4 1012.8 +30.8
17 19.01 ЮВ 5 н/о 1/1 600 м
[]
+25.4 +20.6 75 +32 +32 очень
душно
1011.7 1011.1
20 19.01 ЮВ 7 н/о 10/10 600 м
[]
+25.9 +20.7 73 +32 +32 очень
душно
1012.7 1012.1
23 19.01 ЮВ 7 н/о 1/1 600 м
[]
+28.6 +21.1 64 +36 +39 очень
душно
1014.6 1014.0
02 20.01 ЮВ 8 н/о 1/1 600 м
[]
+29.8 +21.2 60 +37 +42 очень
душно
1014.5 1013.9 +24.9
05 20.01 ЮВ 9 н/о 1/1 600 м
[]
+29.2 +20.1 58 +36 +37 очень
душно
1012.9 1012.3
08 20.01 ЮВ 7 н/о 1/1 600 м
[]
+27.6 +20.4 65 +34 +34 очень
душно
1013.2 1012.6
11 20.01 ЮВ 7 н/о 4/4 600 м
[]
+26.4 +20.7 71 +33 +33 очень
душно
1014.7 1014.1
14 20.01 ЮВ 6 н/о 10/10 600 м
[]
+26.2 +21.0 73 +33 +33 очень
душно
1014.0 1013.4 +30.7
17 20.01 ЮВ 6 н/о {туман} 10/10 600 м
[]
+25.4 +21.5 79 +32 +32 очень
душно
1011.8 1011.2
20 20.01 В 5 н/о 10/10 600 м
[]
+25.8 +21.5 77 +33 +33 очень
душно
1012.1 1011.5
23 20.01 В 7 н/о 9/9 600 м
[]
+28.9 +21.7 65 +37 +37 очень
душно
1013.4 1012.8
02 21.01 ЮВ 8 н/о {туман} 1/1 600 м
[]
+29.6 +20.5 58 +36 +40 очень
душно
1013.2 1012.6 +24.5
05 21.01 ЮВ 8 н/о {туман} 1/0
[]
+29.4 +20.5 59 +36 +38 очень
душно
1012.1 1011.5

 

Местоположение метеостанции Маккай (Квинсленд, Австралия): широта -21.17 долгота 149.18 высота над уровнем моря 6 м.

В архиве по умолчанию представлена погода в Маккае за последнюю неделю. Архивные данные за месяц целиком и за предыдущие месяцы, начиная с января 2011 года, Вы можете получить, выбрав интересующий диапазон дат из раскрывающегося списка и нажав кнопку "Ввод!".


*Определитесь, кто Вы:
робот инопланетянин человек

Внимание! Время в таблицах - всемирное. Для получения местного времени необходимо прибавить поправку, которая равна 10 ч.

Смотрите также архив погоды в соседних городах и на ближайших метеорологических станциях:

Погода в Маккае (Квинсленд, Австралия) (7 км)
Погода в Гамильтон Айленд (Квинсленд, Австралия) (94 км)
Погода в Прозерпине (Квинсленд, Австралия) (101 км)
Погода на Острове Мидл (Квинсленд, Австралия) (126 км)
Погода в Сент-Лоренсе (Квинсленд, Австралия) (136 км)
Погода в Крил Риф (Квинсленд, Австралия) (144 км)
Погода в Уильямсоне (Квинсленд, Австралия) (178 км)
Погода в Сэмюэл Хилл (Квинсленд, Австралия) (230 км)
Погода в Клермоне (Квинсленд, Австралия) (240 км)
Погода в Эре (Квинсленд, Австралия) (255 км)

Пояснения к столбцам:

Ветер - указаны скорость ветра в м/с - средняя за 10 мин, порывы в срок и между сроками (в фигурных скобках) и направление, откуда дует ветер: С - северный, СВ - северо-восточный, В - восточный, ЮВ - юго-восточный, Ю - южный, ЮЗ - юго-западный, З - западный, СЗ - северо-западный.
Видимость - горизонтальная дальность видимости в метрах или километрах. При видимости от 1 до 10 км при отсутствии осадков обычно наблюдается дымка, при ухудшении видимости до 1 км и менее - туман. В сухую погоду видимость может ухудшаться дымом, пылью или мглою.
Явления - указаны атмосферные явления, наблюдавшиеся в срок или в последний час перед сроком; фигурными скобками обозначены явления, наблюдавшиеся между сроками (за 1-3 часа до срока); квадратными скобками обозначены град или гололедные отложения с указанием их диаметра в мм.
Облачность - указаны через наклонную черту общая и нижняя облачность в баллах и высота нижней границы облаков в метрах; квадратными скобками обозначены формы облаков: Ci - перистые, Cs - перисто-слоистые, Cc - перисто-кучевые, Ac - высококучевые, As - высокослоистые, Sc - слоисто-кучевые, Ns - слоисто-дождевые, Cu - кучевые, Cb - кучево-дождевые. Подробнее классификацию облаков см. в Атласе облаков (PDF).
T - Температура воздуха - температура, измеренная на высоте 2 м над землей.
Td - Температура точки росы - температура, при понижении до которой содержащийся в воздухе водяной пар достигнет насыщения.
f - Относительная влажность воздуха - влажноcть воздуха, измеренная на высоте 2 м над землей.
Te - Эффективная температура - температура, которую ощущает одетый по сезону человек в тени. Характеристика душности погоды. При расчете учитывается влияние влажности воздуха и скорости ветра на теплоощущения человека.
Tes - Эффективная температура на солнце - температура, которую ощущает человек, с поправкой на солнечный нагрев. Характеристика знойности погоды. Зависит от высоты солнца над горизонтом, облачности и скорости ветра. Ночью, в пасмурную погоду, а также при ветре 12 м/с и более поправка равна нулю.
P - Атмосферное давление - приведенное к уровню моря атмосферное давление.
Po - Атмосферное давление - измеренное на уровне метеостанции атмосферное давление.
Tmin - Минимальная температура - минимум температуры воздуха на высоте 2 м над землей.
Tmax - Максимальная температура - максимум температуры воздуха на высоте 2 м над землей.
R - Количество осадков - Количество выпавших осадков за период времени, мм. При наведении курсора мыши на число - период времени, за который выпало указанное количество осадков.
R24 - Количество осадков - Количество выпавших осадков за 24 часа, мм.
S - Снежный покров - Высота снежного покрова, см. При наведении курсора мыши на число - состояние снежного покрова и степень покрытия местности в баллах.